Theta_e
347 348 348 347 347 347 348 350 354 355 353 351 337 348 348 352 353 353 353 351 347 348 348 345 353 352 350 348 347 345 341 341 344 345 345 340 336 335 340 343 342 337 340
347 350 348 350 351 351 350 350 351 351 345 339 340 341 343 347 349 347 344 346 350 350 349 351 350 352 348 345 342 339 341 338 345 342 346 345 341 342 343 346 344 346 346
349 350 353 354 355 355 355 352 342 344 341 341 342 341 341 343 347 345 344 348 348 349 349 350 350 350 349 350 344 344 343 347 347 344 344 345 347 348 347 345 338 343 343
353 352 353 356 358 358 347 342 343 345 342 342 342 339 342 341 342 343 342 342 342 341 341 342 345 346 345 347 348 348 346 346 344 342 341 341 338 336 339 334 334 334 335
352 352 352 353 352 344 342 339 342 339 339 342 342 341 339 340 340 339 337 338 339 339 339 337 338 339 341 342 344 341 336 334 333 333 333 333 333 332 334 335 335 336 336
347 348 348 345 339 338 340 338 340 337 341 341 339 339 338 338 337 338 335 335 338 338 336 336 336 335 334 335 333 333 333 333 332 330 331 331 331 331 329 329 333 335 334
340 342 340 341 341 333 337 336 336 338 339 340 339 338 338 337 337 338 338 336 334 332 332 335 333 333 334 333 332 331 331 330 327 326 325 324 323 323 324 328 328 326 326
336 337 339 339 340 339 338 336 338 340 342 341 339 334 330 326 323 323 325 329 330 331 328 325 325 325 325 325 326 326 327 327 324 324 323 323 323 322 322 322 322 322 322
334 335 336 337 338 338 338 338 339 341 339 339 336 332 329 323 321 323 325 326 327 326 326 326 325 324 322 322 323 323 323 323 321 319 318 320 321 322 324 324 324 323 322
337 336 337 337 336 337 337 339 337 336 336 336 335 332 330 328 322 322 324 325 324 324 323 323 322 319 318 318 316 314 313 313 313 317 319 322 325 325 325 325 325 324 323
338 336 335 335 338 338 338 337 335 334 333 332 332 331 329 323 322 321 321 322 323 323 321 319 315 312 312 312 312 313 315 316 317 318 325 322 319 317 317 319 321 325 325
336 336 338 339 337 334 333 333 333 332 332 332 332 330 328 323 322 321 321 321 321 319 316 313 315 317 318 318 318 319 321 323 323 321 317 315 315 315 314 314 314 315 317
339 337 337 334 333 332 329 327 327 327 328 328 329 329 326 322 322 322 321 319 314 313 314 315 318 317 320 320 320 319 318 317 316 316 315 315 315 315 315 314 314 314 314
335 333 332 331 329 328 326 321 322 324 326 327 327 325 324 323 322 321 317 312 313 314 315 316 317 316 315 315 315 314 314 314 315 315 315 313 312 312 313 313 313 314 314
331 328 328 327 326 325 318 315 314 319 321 327 327 326 324 321 317 313 313 313 314 314 315 316 317 316 315 315 314 314 314 314 314 312 311 310 310 310 310 311 311 312 314
326 326 325 324 319 317 316 315 315 315 317 316 316 316 315 314 314 314 314 314 314 315 315 315 316 317 316 315 314 314 313 314 313 310 309 308 308 309 308 308 309 309 310
324 324 324 322 320 318 317 316 314 315 316 317 316 316 315 315 315 315 315 315 315 316 316 315 316 316 316 314 313 312 312 313 311 309 308 307 307 308 307 307 309 309 310
324 324 324 322 321 319 319 318 317 316 315 315 315 315 316 316 315 315 315 316 315 315 316 316 316 315 314 313 312 311 311 310 309 308 307 307 307 307 307 306 305 306 307
323 322 320 319 319 318 318 318 317 317 317 317 317 317 317 316 315 315 315 315 315 315 315 315 314 313 312 312 310 309 309 308 307 307 306 306 306 305 303 303 304 305 305
317 317 317 318 318 317 317 317 317 317 317 317 316 316 317 317 316 316 315 315 316 315 315 314 313 312 310 310 309 308 307 306 306 306 305 305 306 304 303 302 302 303 304
319 321 319 318 318 318 319 320 320 317 317 316 316 317 317 317 316 316 315 315 316 316 315 313 312 309 308 308 307 306 306 305 305 305 304 305 305 304 303 302 301 301 301
318 319 319 320 320 320 318 318 319 318 319 318 317 317 318 317 317 316 315 315 315 315 314 313 311 308 306 305 304 304 305 305 304 303 304 304 303 304 303 301 301 301 300
319 319 319 318 318 317 316 316 317 317 316 315 316 317 317 316 316 315 315 314 314 315 314 313 311 309 307 307 308 306 306 307 307 305 304 303 302 301 302 301 300 300 300
318 318 318 318 317 316 316 316 317 316 315 316 315 315 315 315 315 314 315 314 314 314 314 313 312 311 310 309 309 309 309 309 308 307 306 305 304 304 302 301 300 300 299
318 317 317 316 316 316 315 316 316 316 317 317 317 317 316 316 316 315 316 315 313 312 313 313 312 311 311 310 310 309 309 309 309 309 309 308 307 306 305 304 301 300 299
317 317 316 317 317 317 317 316 316 316 316 316 317 318 317 316 315 315 315 314 313 312 313 313 313 312 312 311 311 310 310 310 310 310 309 309 309 308 307 305 303 302 300
Wind_Speed
36 35 34 33 35 37 34 28 23 21 18 20 19 16 14 20 25 28 28 23 19 19 17 16 14 14 15 17 17 18 18 14 4 14 19 27 18 29 28 29 25 26 24
34 29 34 32 35 31 27 23 27 24 21 18 18 17 17 15 20 16 16 16 15 14 14 16 17 15 16 17 17 20 20 22 16 11 25 27 33 29 29 28 21 22 26
33 34 34 36 32 29 25 24 16 13 12 5 3 6 9 11 17 13 12 5 6 8 9 12 12 12 12 12 14 13 16 19 16 10 14 17 18 21 16 16 19 22 21
34 32 33 29 27 26 24 17 10 9 15 9 2 4 9 18 18 18 9 10 10 11 11 7 1 7 9 9 8 6 9 9 8 6 1 3 4 5 8 11 14 11 12
12 15 18 21 21 21 16 7 7 14 9 9 14 15 14 15 13 13 11 10 3 7 7 8 4 4 4 2 5 10 7 4 5 3 1 3 4 3 2 5 12 16 17
17 22 23 27 24 11 3 8 11 12 13 14 13 10 8 8 7 5 8 11 6 4 5 5 5 6 1 3 5 7 5 6 5 4 2 1 3 5 7 10 12 10 3
21 23 31 33 20 15 27 22 20 15 15 13 11 7 9 11 8 5 5 6 10 12 8 7 7 7 9 8 7 6 4 2 2 0 2 3 6 7 10 13 15 13 15
23 21 15 19 20 35 29 23 16 15 16 17 17 18 15 12 10 9 9 10 8 7 7 3 4 4 4 3 3 3 2 2 2 3 6 8 9 11 12 14 16 21 25
22 20 19 20 20 25 26 22 19 19 19 20 18 18 17 15 12 11 11 12 12 10 9 7 5 6 6 4 1 1 4 6 7 9 9 8 9 10 10 12 12 12 9
22 25 26 25 25 23 23 24 23 20 20 18 18 18 17 17 14 12 12 12 15 14 11 7 5 5 4 5 7 8 10 11 9 8 6 5 3 3 6 8 8 9 10
19 21 23 24 21 22 22 21 22 20 19 19 20 18 18 19 17 15 13 14 15 13 6 4 5 7 8 8 7 5 5 7 8 5 3 5 6 8 10 10 11 9 8
24 22 24 25 25 21 23 18 20 19 19 19 20 20 18 18 16 13 13 12 8 7 6 6 7 7 5 2 1 3 5 7 6 4 5 7 10 13 14 15 15 13 12
28 26 29 26 25 19 22 21 19 19 19 20 21 18 20 18 15 10 8 5 5 6 5 6 8 16 18 16 14 11 9 7 4 5 7 9 10 11 13 14 15 16 17
28 25 30 29 26 24 23 24 21 20 21 22 23 25 24 18 13 10 5 5 5 5 6 7 7 8 10 10 8 8 7 5 5 5 6 9 12 13 14 14 17 18 20
24 21 22 28 29 25 21 19 16 15 17 23 25 25 22 15 12 10 8 6 3 5 5 6 2 1 5 9 9 9 9 9 6 6 8 12 13 14 16 16 16 17 15
26 27 21 23 27 29 27 23 19 19 19 19 19 19 15 14 12 9 6 3 1 3 3 3 2 3 4 6 9 10 10 9 7 9 13 15 14 13 16 17 17 16 18
19 18 24 22 22 25 25 25 20 16 17 16 14 12 10 11 9 6 3 1 5 7 7 7 8 8 7 9 10 10 9 6 8 12 14 13 11 11 12 15 16 14 15
15 15 16 18 20 19 19 19 19 19 15 12 10 10 10 9 8 7 6 7 8 7 10 12 12 10 10 11 10 10 10 9 12 13 11 9 7 9 10 12 14 15 14
20 18 18 18 20 20 19 18 15 14 11 11 9 9 11 11 10 11 12 12 13 10 11 12 11 11 12 11 10 9 10 11 10 11 11 9 8 10 12 10 11 12 14
16 15 16 13 13 12 11 9 8 9 10 10 8 4 4 7 8 8 9 10 11 11 11 12 10 10 12 12 10 9 9 9 7 8 10 9 9 11 11 11 11 11 12
11 9 10 10 10 8 5 2 2 6 6 5 4 2 4 6 7 8 7 8 12 13 13 13 9 9 10 11 9 7 7 6 6 7 8 8 10 10 10 11 12 12 14
13 13 11 10 9 8 7 4 2 3 4 2 1 2 5 8 8 8 10 11 10 14 15 11 10 9 9 9 8 6 5 5 6 7 8 9 9 10 11 13 13 15 17
10 11 10 9 7 5 4 4 1 2 1 3 4 2 3 4 6 9 11 10 11 14 15 14 13 11 10 9 8 9 10 9 8 9 9 11 11 11 12 13 15 18 19
7 6 6 4 4 2 2 2 1 1 3 4 5 5 6 5 6 9 8 8 10 11 15 16 17 17 14 13 14 14 13 13 14 13 14 15 15 15 15 14 18 20 21
2 3 3 1 3 3 1 2 3 5 5 6 8 9 9 9 11 13 12 12 13 12 14 20 21 22 22 19 19 18 17 16 18 18 18 20 21 21 21 22 22 22 24
2 1 2 3 2 5 8 8 8 9 10 11 11 13 14 15 15 15 15 17 17 18 19 23 26 28 29 26 24 23 22 22 22 22 23 25 25 25 24 24 24 26 28
Wind_Direction
220 220 219 223 228 228 228 226 235 243 261 256 274 309 292 271 260 250 231 229 237 247 250 252 252 245 235 211 205 199 195 201 239 199 193 186 211 239 269 283 284 278 276
219 220 229 225 225 223 217 208 219 216 242 270 298 301 287 282 246 225 256 244 241 238 255 257 254 248 224 211 208 198 200 207 218 211 207 213 221 242 267 277 276 284 279
214 211 212 212 215 209 198 189 185 201 246 253 209 312 317 281 222 206 221 201 202 207 224 236 239 233 224 221 206 202 217 214 226 221 207 219 237 257 278 282 293 279 274
211 205 201 202 196 189 174 159 148 267 257 232 290 152 110 100 110 108 96 89 65 63 65 64 32 238 230 214 204 220 243 178 194 244 260 233 250 258 250 283 296 313 310
170 160 174 177 168 144 137 132 189 172 154 134 139 136 119 120 120 122 94 61 48 36 15 23 15 332 295 236 166 152 183 188 190 192 346 337 327 318 321 293 309 311 308
155 158 152 122 110 99 119 152 203 156 158 151 136 128 120 105 115 124 143 158 195 172 118 129 112 54 182 200 195 157 178 174 144 141 116 344 302 306 313 319 316 320 318
142 150 145 144 153 37 259 198 182 172 158 153 130 123 108 107 115 134 151 164 162 150 140 182 161 148 127 132 114 119 124 106 64 61 218 243 275 303 307 311 311 298 283
147 160 176 168 160 168 195 193 182 174 155 134 132 122 113 108 113 121 132 138 139 125 145 137 162 127 117 150 177 206 221 271 313 312 298 300 304 305 297 296 297 297 295
163 170 177 163 161 167 174 174 171 161 146 136 133 123 119 110 106 108 117 122 116 117 113 109 100 88 72 68 83 247 279 278 290 291 287 288 294 303 297 293 291 292 299
181 177 171 163 164 175 171 166 159 147 129 142 130 132 128 112 106 119 131 131 117 114 104 99 76 37 0 327 312 306 298 301 301 307 301 295 322 56 41 22 351 298 295
186 178 170 165 160 169 164 159 142 134 141 132 133 136 126 119 114 113 117 114 118 122 104 55 355 333 316 305 302 304 301 295 298 314 19 52 19 6 358 357 360 350 318
181 170 181 160 151 166 148 139 135 136 141 141 137 131 136 125 123 122 109 102 102 97 72 15 357 349 340 350 36 40 64 81 104 86 18 360 353 350 352 347 338 322 310
174 167 155 149 140 156 139 131 139 153 148 144 138 132 140 134 127 119 112 103 90 81 45 31 62 73 70 83 88 82 76 68 56 1 340 335 332 329 326 325 324 329 323
151 151 150 142 150 153 134 127 134 135 135 136 133 135 139 137 139 136 128 114 74 56 55 68 108 70 67 70 56 39 33 8 347 339 330 328 325 325 322 326 325 326 326
140 145 149 146 145 137 122 126 135 141 139 132 133 133 135 148 155 147 144 136 79 32 50 53 82 38 26 16 7 355 346 340 340 339 333 331 330 330 329 331 334 336 334
142 149 153 148 133 131 124 121 126 125 127 127 129 128 136 142 142 143 150 153 83 14 341 347 346 279 288 313 320 319 316 309 317 324 328 331 329 331 334 332 330 325 321
121 138 138 140 136 138 135 134 126 127 138 143 143 137 148 151 153 152 160 268 303 308 293 282 282 254 253 285 299 302 299 285 294 315 318 319 316 315 325 324 324 322 321
133 136 134 142 153 146 147 148 150 154 155 162 168 177 191 191 190 216 241 264 280 268 246 246 256 238 261 280 289 295 288 289 300 311 309 313 308 304 315 314 314 316 314
150 151 150 151 148 141 136 139 143 148 147 154 181 205 228 228 234 247 262 268 281 274 235 238 227 248 268 265 273 280 282 293 303 306 309 306 307 314 325 322 315 315 312
106 120 141 131 137 134 131 137 150 158 170 185 191 182 196 201 213 240 267 271 261 265 243 231 229 261 268 254 254 258 269 279 292 300 301 298 300 315 322 326 330 321 320
97 138 134 124 121 116 100 64 266 234 223 216 240 251 228 222 263 273 271 286 262 258 242 223 245 275 268 247 248 256 263 278 285 280 284 288 288 299 310 314 316 320 321
97 105 107 99 96 89 74 52 50 138 153 167 277 246 226 249 269 262 288 273 278 255 230 230 252 271 255 246 248 249 267 289 296 292 288 289 289 294 300 301 305 311 316
111 116 106 105 103 87 64 50 91 101 19 333 318 273 243 274 266 276 289 276 272 250 233 236 248 257 253 250 261 269 275 284 293 292 289 290 287 291 293 293 300 308 309
88 122 124 140 151 94 61 358 128 296 307 308 317 307 277 280 287 280 284 281 291 281 249 245 256 257 259 259 261 263 270 276 278 282 285 287 291 298 299 293 301 307 309
60 126 107 338 239 225 240 193 218 256 272 281 282 281 283 290 280 275 274 278 281 276 263 257 264 263 261 265 265 264 265 270 274 279 280 280 284 289 294 297 299 299 305
238 275 284 273 254 268 267 257 262 277 272 282 277 275 269 268 267 270 277 274 278 274 275 270 268 271 271 268 273 276 276 275 277 278 274 274 276 280 285 291 296 298 300